Tracking 19909 objects as of 21-Oct-2019
HD Live streaming from Space Station
objects crossing your sky now

OPS 5798 DEB

Track OPS 5798 DEB now!
10-day predictions


NORAD ID: 903
Int'l Code: 1964-063F
Perigee: 967.6 km
Apogee: 998.5 km
Inclination: 90.2 °
Period: 104.6 minutes
Semi major axis: 7354 km
RCS: 0.0502 m2 (small)
Launch date: October 6, 1964
Source: United States (US)
Launch site: AIR FORCE WESTERN TEST RANGE (AFWTR)

Note: This is SATELLITE DEBRIS
aabbcc
Your satellite tracking list
Your tracking list is empty




NASA's NSSDC Master Catalog

Two Line Element Set (TLE):
1   903U 64063F   19293.24174697 +.00000272 +00000-0 +26746-3 0  9994
2   903 090.1586 022.8795 0020977 277.7311 109.8474 13.76621444739436
Source of the keplerian elements: AFSPC